FENGYUN 1C DEB, 30316

Orbit data source: Space-Track

FENGYUN 1C DEB, 30316 is space debris in SSO originally from a launch on Mon, 10 May 1999 UTC launched from the Taiyaun Space Center, China (TSC). Fengyun 1C debris stems from the Chinese weather satellite Fengyun-1C, which was intentionally destroyed by a Chinese anti-satellite missile in 2007. This event dramatically increased the amount of space debris, with thousands of trackable fragments posing hazards to satellites and human spaceflight. The Fengyun 1C debris cloud has become a focal point in discussions about space sustainability and the need for international regulations to prevent the creation of new debris.

Loading next visibility...
FENGYUN 1C DEB details
Identifier
30316, 1999-025AAD
Orbit
SSO
Last TLE update21 hours ago
Origin
Flag of CNCASC (CN / PRC)
ManufacturerUnknown
MissionSpacecraft
Bus & MotorUnknown
MassUnknown
Launch date (UTC)
1999-05-10 (26 years ago)
Launch vehicleUnknown
Launch site
Taiyaun Space Center, China (TSC)
Object type
Payload
Rocket body
Debris
Shape & HBRUnknown
Radar Cross SectionSmall (<0.1 m²)

Expand to show TLE details & history

TLE from 21 hours ago
0 FENGYUN 1C DEB
1 30316U 99025AAD 24355.72401689  .00013143  00000-0  36728-2 0  9994
2 30316  98.6527  82.0332 0043252  44.2451 316.2185 14.45746751931582
Epoch: 2024-12-20T17:22Z
Definitive object data (Epoch: 2024-12-20T17:22:35.059Z)
Latitude0.00001°
Longitude91.60169°
Altitude720.359 km
Speed7.507 km/s
True Right ascension05h 28m 07s
True Declination0° 00' 00"
Sunlit
Object was in full shadow at TLE epoch
Visualization TLE readout
Latitude22.30722°
Longitude-83.96048°
Altitude755.53 km
Speed7.472 km/s
Apparent Right ascension20h 37m 31s
Apparent Declination-11° 29' 11"
Sunlit
Object is in daylight
Visualization observer readout
Local Sidereal Time13:03:53
Azimuth83.838° E
Elevation-25.239°
Doppler factor1
Orbital elements
Apogee altitude767.469 km
Perigee altitude705.922 km
Semi-major axis7,114.833 km
Eccentricity0.0043252
Inclination98.6527°
RAAN82.0332°
Arg. of periapsis44.2451°
True anomaly315.87423°
Mean anomaly316.2185°
Eccentric anomaly316.0465°
Mean motion3.61656 °/min
BSTAR0.0036728
Orbital period99.54 mins
Loading maneuver chart data...
Loading historical data...
Loading historical data...
Loading historical data...
Loading historical data...
Loading historical data...
Loading historical data...
Loading historical data...

FENGYUN 1C DEB Visibility forecast

Observer location: undefined°, undefined

Span
Click to sort rows by Start time (UTC) header in descending order
Start Az.
Max El. time (UTC)
Max El. Az.
Max El.
End time (UTC)
End Az.
9 mins2024-12-21 18:51:49.692Z15.171° NNE2024-12-21 18:55:49.692Z87.689° E44.869°2024-12-21 19:00:49.692Z192.803° SSW
8 mins2024-12-22 06:02:49.692Z171.141° S2024-12-22 06:05:49.692Z215.421° SW44.164°2024-12-22 06:10:49.692Z344.156° N
|